Hourly Weather Roundup
Issued by NWS Central Illinois

Home | Current Version | Previous Version | Text Only | Print | Product List | Glossary On
Versions: 1 2 3 4 5 6 7 8 9 10 11 12 13 14 15 16 17 18 19 20 21 22 23 24 25 26 27 28 29 30 31 32 33 34 35 36 37 38 39 40 41 42 43 44 45 46 47 48 49 50
000
NZUS43 KILX 231910
HWRILX

AREA WEATHER ROUNDUP
NATIONAL WEATHER SERVICE, LINCOLN IL
100 PM CST MON JAN 23 2017


CITY           SKY/WX    TMP DP  RH WIND       PRES   REMARKS
BLOOMINGTON    CLOUDY    39  35  86 NW14      29.78R WCI  31
CHAMPAIGN      CLOUDY    40  34  79 N15       29.75R WCI  32
DANVILLE       CLOUDY    39  36  91 N13       29.69F WCI  31
DECATUR        CLOUDY    41  36  82 N10       29.77S WCI  35
EFFINGHAM      CLOUDY    41  38  89 NW14      29.78F WCI  33
FLORA          CLOUDY    42  37  83 NW16      29.76F WCI  34
GALESBURG      CLOUDY    39  36  89 NW10        N/A  WCI  32
JACKSONVILLE   CLOUDY    41  35  79 NW10      29.82F WCI  35
LACON          CLOUDY    40  36  84 NW8       29.79R WCI  35
LAWRENCEVILLE  CLOUDY    43  38  82 NW20      29.72S WCI  34
LITCHFIELD     CLOUDY    40  36  84 NW14      29.80F WCI  33
$$


CITY           SKY/WX    TMP DP  RH WIND       PRES   REMARKS
LINCOLN        CLOUDY    43  38  82 NW7       29.78F
MACOMB         CLOUDY    40  37  87 NW12      29.85F WCI  33
MATTOON        CLOUDY    39  36  89 N16       29.75R WCI  30
MT CARMEL AP   CLOUDY    42  36  80 NW15      29.73R WCI  34
OLNEY-NOBLE AP CLOUDY    39  39 100 NW14      29.75F WCI  31
PARIS          CLOUDY    40  37  90 N9G16     29.72F WCI  34
PEORIA         CLOUDY    43  35  73 W10       29.80F
PONTIAC        CLOUDY    41  38  91 N10       29.77S WCI  35
RANTOUL        CLOUDY    41  37  86 N13G20    29.74S WCI  34
SPRINGFIELD    CLOUDY    44  36  73 NW12      29.80F
TAYLORVILLE    CLOUDY    40  36  84 NW13G18   29.80F WCI  33
$$

...REGIONAL REPORTS...


CITY           SKY/WX    TMP DP  RH WIND       PRES   REMARKS
CHICAGO O`HARE CLOUDY    41  36  82 N9        29.74F
KANKAKEE       CLOUDY    39  35  84 N9        29.74F WCI  33
MOLINE         CLOUDY    41  35  79 W12       29.81F WCI  34
MOUNT STERLING CLOUDY    39  33  78 NW10      29.83F WCI  32
MOUNT VERNON   CLOUDY    41  35  79 VRB5      29.77F
PITTSFIELD     CLOUDY    41  35  79 NW9       29.84F WCI  35
QUINCY         CLOUDY    39  33  79 NW8       29.84F WCI  33
ROCKFORD       CLOUDY    43  35  73 N10       29.78F
$$


CITY           SKY/WX    TMP DP  RH WIND       PRES   REMARKS
BURLINGTON     CLOUDY    39  35  86 NW7       29.83F WCI  34
CEDAR RAPIDS   CLOUDY    35  32  88 W9        29.83F WCI  28
DES MOINES     CLOUDY    34  29  82 N6        29.88S WCI  29
KIRKSVILLE     CLOUDY    33  29  85 NW6       29.87S WCI  28
OTTUMWA        CLOUDY    34  28  79 NW8       29.86F WCI  27
ST LOUIS       CLOUDY    43  35  73 NW14      29.82F
$$


CITY           SKY/WX    TMP DP  RH WIND       PRES   REMARKS
TERRE HAUTE    CLOUDY    42  36  79 N15G22    29.70F WCI  34
EVANSVILLE     CLOUDY    44  36  73 NW10G21   29.72S
INDIANAPOLIS   CLOUDY    42  40  92 NW18G25   29.65S FOG     WCI  34
LAFAYETTE      CLOUDY    41  38  89 NW13G23   29.69F WCI  34
MADISON        CLOUDY    40  35  83 NW7       29.77F
MILWAUKEE      CLOUDY    42  37  82 NW8       29.74F
$$





USA.gov is the U.S. government's official web portal to all federal, state and local government web resources and services.